Voltar ao catálogo

COSMOS 1476

AtivoNavegaçãoLEO
NORAD 14174·PAYLOAD·🇷🇺 Russia

Lançado Jul 6, 1983 de Plesetsk Cosmodrome

Loading…

Próximas Passagens (próximas 24 horas)

TLE

AtualizadoSource: Space-Track

Época: Sep 14, 2026, 14:46 UTC

1 14174U 83069D   26257.61572777 -.00000005  00000-0  70218-4 0  9995
2 14174  74.0233 113.9063 0010708  36.1730 352.4025 12.52545706975006

Acompanhe COSMOS 1476 em tempo real com AllMySat

Download on the App Store